{"data":{"norad_id":67222,"epoch":"2026-05-24T21:34:10.887168Z","epoch_age_seconds":86934,"freshness":"FRESH","line1":"1 67222U 25305D   26144.89873712  .00003176  00000+0  21194-3 0  9992","line2":"2 67222  45.0019 206.8165 0004383  20.4771 339.6280 15.09180614 23794","mean_motion":15.09180614,"eccentricity":0.0004383,"inclination_deg":45.0019,"raan_deg":206.8165,"arg_perigee_deg":20.4771,"mean_anomaly_deg":339.628,"bstar":0.00021194,"rev_number":2379,"period_min":95.416014931663,"perigee_km":535.67081331146,"apogee_km":541.73411478565,"semimajor_km":6916.8394640486,"source":"CELESTRAK","updated_at":"2026-05-25T13:38:06.819796Z"}}